Theta_e
339 344 343 344 343 342 343 342 342 342 342 339 334 330 330 333 335 330 329 331 329 335 335 338 332 332 333 333 331 332 334 333 329 331 332 331 330 334 339 342 343 341 335
339 341 342 343 342 342 342 342 342 342 341 341 341 341 342 339 333 332 332 332 332 333 334 332 331 331 330 330 331 331 331 331 331 330 331 330 330 334 335 338 341 345 341
339 338 338 341 341 342 342 342 342 341 341 341 341 341 341 337 332 332 332 332 331 331 331 331 331 331 334 332 332 332 330 329 331 333 332 332 346 338 339 336 336 342 342
337 337 335 335 335 337 341 341 339 336 334 334 335 336 333 332 331 331 331 331 330 330 330 331 333 334 335 335 333 333 332 335 333 333 333 333 338 340 340 342 337 338 340
335 334 334 333 332 333 336 337 334 332 330 328 328 331 332 331 331 331 330 330 332 332 332 331 331 330 330 332 334 335 334 335 332 334 334 336 336 336 334 339 344 337 337
333 333 332 332 331 331 331 331 331 331 330 332 333 327 328 329 329 328 330 334 334 331 330 328 327 327 327 328 328 332 335 334 335 334 341 336 338 338 336 338 344 342 337
332 333 333 332 332 331 331 331 330 330 335 337 336 335 331 330 331 333 333 332 330 328 328 329 331 333 333 332 330 330 329 334 333 336 342 337 339 340 336 338 338 339 336
331 332 337 331 331 330 329 327 331 335 334 336 336 335 334 333 331 329 328 328 330 333 334 335 336 336 335 335 335 333 331 330 331 335 339 341 341 340 344 344 339 339 339
331 331 333 329 327 326 325 330 335 334 333 334 337 336 333 328 328 329 332 335 337 340 342 343 344 344 342 339 337 337 336 336 333 330 335 342 344 343 344 344 344 339 338
331 330 330 328 325 326 330 334 335 336 336 336 334 330 328 328 331 335 338 341 344 346 347 347 347 346 346 345 343 342 342 342 343 340 331 335 343 344 345 345 344 342 340
331 330 330 330 329 331 333 333 332 330 330 329 328 327 328 333 338 342 344 346 348 348 348 347 347 346 346 345 345 344 344 347 344 342 338 335 342 343 344 344 345 345 344
331 330 330 331 331 332 333 331 329 327 326 326 327 328 333 340 345 347 348 350 351 350 350 349 348 348 347 345 345 345 347 343 348 344 342 343 344 345 345 342 342 344 344
331 331 331 332 332 333 333 331 329 330 330 328 328 330 337 346 348 348 348 347 348 350 352 350 348 348 348 347 347 346 347 347 345 345 344 345 345 346 345 342 341 341 342
333 333 333 333 333 335 337 339 336 335 332 329 328 334 344 346 346 346 346 347 347 349 350 351 349 350 350 350 349 347 347 347 347 346 345 347 349 349 348 344 342 341 339
337 338 336 334 334 336 337 338 336 333 330 330 334 334 345 346 346 346 346 347 347 349 349 349 349 349 349 349 348 348 348 349 348 347 347 350 350 351 348 343 339 337 337
341 342 341 339 336 335 336 336 336 333 330 338 337 337 342 340 340 341 346 346 350 348 349 350 349 348 349 347 348 347 349 350 350 349 346 350 349 349 345 344 342 337 335
345 346 345 344 340 335 334 334 335 335 337 342 345 345 345 345 343 344 345 348 347 349 348 350 348 351 351 349 349 349 348 346 348 349 347 349 350 349 347 346 345 344 336
346 346 347 346 343 341 336 335 333 337 339 344 345 346 345 344 346 347 348 347 348 347 347 348 347 348 348 350 348 349 348 349 348 347 348 345 349 349 348 346 346 346 340
346 347 347 346 345 345 344 342 337 335 342 344 345 345 345 344 344 346 347 346 347 350 349 348 349 348 349 347 349 348 347 348 349 349 348 347 349 345 347 349 346 347 347
346 346 346 347 346 346 345 344 343 340 340 344 344 344 344 345 344 343 346 348 349 350 350 350 347 350 350 349 348 347 347 347 347 346 347 348 348 349 346 347 349 347 348
344 345 346 346 347 346 346 346 346 346 346 345 346 345 344 345 346 346 344 348 348 349 350 350 346 347 349 346 348 349 346 347 346 345 347 344 346 347 348 349 348 348 349
342 342 344 345 346 346 346 346 346 347 347 347 347 347 347 345 345 346 344 346 348 349 350 349 348 348 349 348 347 346 349 347 342 346 344 343 345 347 347 347 346 345 348
343 343 343 344 344 345 346 346 346 346 347 347 347 347 348 347 346 346 345 343 347 349 349 347 347 350 349 348 346 348 350 349 345 344 346 343 343 345 346 346 345 345 348
345 344 345 345 344 344 344 345 345 346 346 346 346 346 347 348 347 345 342 342 347 348 350 348 347 349 349 350 348 347 347 347 348 351 348 346 345 343 342 343 344 343 347
346 346 345 345 345 345 345 344 344 344 345 346 346 346 347 348 348 341 333 339 346 348 348 350 349 349 348 348 348 348 347 345 345 349 349 350 345 345 342 340 342 342 345
345 346 346 345 345 346 346 346 345 345 345 345 346 346 347 349 347 337 336 339 346 348 348 348 350 350 350 349 350 349 347 348 347 346 347 347 349 347 345 341 340 343 340
Wind_Speed
28 26 24 23 22 21 21 21 20 20 19 19 18 17 14 11 10 11 12 11 11 8 8 4 3 2 2 2 3 4 4 4 2 1 2 2 2 2 4 4 4 6 7
29 27 26 24 22 20 20 20 18 17 17 17 16 14 13 10 10 11 11 10 8 6 5 3 2 2 3 4 5 5 6 6 5 3 1 0 2 3 5 4 4 6 7
29 28 26 24 21 20 19 19 17 16 15 14 13 12 11 10 10 10 9 8 7 6 5 5 4 4 4 3 2 3 3 3 5 4 2 2 4 4 4 4 4 5 6
31 28 25 23 21 19 19 18 16 15 13 12 11 11 11 10 9 9 8 7 7 6 5 4 4 4 4 4 2 2 1 0 2 3 3 4 4 4 4 3 4 5 6
30 27 24 23 21 20 19 17 16 14 12 9 10 10 10 9 8 7 6 5 5 4 4 4 4 4 4 5 4 3 1 1 1 2 4 4 4 4 4 4 6 5 6
28 25 23 22 20 19 18 16 13 12 9 8 9 9 10 9 7 6 6 5 5 4 5 6 6 7 7 7 6 6 4 3 2 4 1 2 3 9 5 5 7 7 8
27 24 22 20 19 17 16 14 12 10 9 8 8 9 9 8 7 6 6 5 6 6 6 7 7 7 7 7 7 7 7 6 5 6 5 5 1 2 5 6 7 7 7
25 24 20 20 18 17 16 13 12 10 10 10 9 9 9 7 7 6 6 6 6 6 6 6 6 6 6 6 7 7 7 8 8 8 9 8 6 5 5 6 7 8 8
24 22 21 20 19 17 15 13 12 11 12 11 10 9 8 7 7 6 6 4 5 4 5 5 6 6 6 7 7 7 7 7 8 9 11 10 8 7 7 8 8 11 12
25 22 21 20 19 17 15 13 13 12 11 10 9 9 8 7 6 5 5 4 3 4 6 8 8 8 8 8 8 7 8 8 9 8 10 11 11 9 9 8 9 11 11
26 23 22 20 18 17 15 14 14 12 11 10 10 8 8 7 6 5 4 3 4 6 8 8 8 8 8 8 8 7 8 8 8 9 9 10 10 9 8 8 9 10 10
28 25 22 21 19 17 15 14 12 12 12 12 11 9 8 8 6 5 4 2 5 7 7 6 5 6 7 8 7 7 7 7 8 7 7 7 7 7 7 9 10 10 11
27 25 23 22 20 18 16 15 14 12 12 12 11 10 10 9 8 6 5 3 4 5 7 6 6 5 5 6 8 9 10 9 9 9 8 8 8 8 8 9 10 10 11
27 25 23 22 21 19 17 16 15 14 13 12 11 12 12 11 9 8 7 6 6 6 5 7 6 5 5 7 7 7 8 9 10 10 10 10 10 10 10 10 10 10 10
26 24 23 23 22 20 19 17 16 15 13 11 12 14 14 11 10 9 10 9 9 8 7 8 7 7 7 8 7 6 10 11 12 12 12 12 13 14 11 10 10 9 9
26 23 22 21 21 21 19 18 17 15 14 13 12 13 13 12 12 13 12 9 9 9 7 8 8 7 8 8 8 8 9 11 13 14 15 12 11 12 10 8 7 7 6
25 22 21 19 20 21 20 19 18 16 16 17 15 13 12 11 11 12 11 9 9 9 11 10 8 8 9 10 9 9 10 12 13 14 15 13 12 12 10 8 6 5 6
28 26 22 21 20 19 20 19 20 19 18 18 16 15 15 13 13 12 9 8 8 11 12 11 11 12 13 13 11 12 13 12 12 15 15 15 14 14 12 10 8 5 5
29 28 26 24 23 21 20 20 20 22 20 19 18 15 15 15 16 15 14 14 11 14 13 11 12 12 15 13 14 14 13 12 11 13 15 14 16 14 16 12 11 7 5
30 29 29 28 27 25 24 23 22 23 23 23 22 19 17 17 14 15 16 14 13 15 14 12 13 16 17 15 14 13 13 13 13 12 13 15 15 16 18 14 14 11 7
30 32 33 31 30 29 27 27 26 26 24 24 22 21 21 20 18 17 17 17 18 19 16 14 14 15 14 14 16 17 14 12 13 13 12 13 17 17 15 16 15 14 11
31 31 33 34 33 32 31 29 29 27 26 26 25 22 21 23 21 21 19 19 18 16 14 15 15 14 15 14 10 11 8 8 8 5 7 13 18 16 17 15 17 14 14
34 33 34 34 34 33 33 33 33 33 32 29 28 25 23 22 22 24 23 22 20 18 17 16 16 16 15 15 13 10 6 4 7 10 9 8 11 18 18 18 16 16 16
34 32 33 32 34 33 35 36 37 36 35 30 26 25 23 22 22 24 25 25 23 21 20 20 18 16 16 17 17 17 16 17 8 7 7 10 9 12 17 20 21 21 17
33 31 30 32 33 34 35 36 36 37 38 35 32 27 24 24 23 24 24 26 26 24 22 23 22 19 18 18 19 19 17 16 16 15 14 8 14 13 12 16 21 21 19
36 36 33 30 31 33 35 35 37 37 35 37 35 28 27 25 24 24 23 25 26 24 25 22 24 23 22 23 22 21 21 15 16 16 15 17 17 19 15 11 17 19 17
Wind_Direction
167 161 159 151 151 144 140 140 139 140 142 139 142 146 149 150 152 154 154 155 157 156 165 158 144 149 182 226 249 254 262 269 280 311 353 30 49 109 131 137 107 126 128
164 166 161 157 156 153 151 146 144 144 145 151 151 156 160 163 160 160 157 161 168 170 182 214 253 263 254 258 260 259 254 254 252 245 255 101 119 151 148 146 141 152 139
169 166 163 162 161 159 159 154 153 152 153 159 164 169 171 170 167 164 167 176 187 197 218 233 242 256 261 258 253 267 261 239 230 220 198 175 154 163 151 153 162 170 164
165 164 164 163 164 165 165 160 159 156 157 163 170 176 177 176 178 181 187 195 212 221 223 229 231 245 260 267 282 322 338 197 177 180 169 171 164 187 192 190 174 177 181
164 165 165 162 163 164 165 164 164 163 165 177 187 193 193 195 196 198 204 210 211 217 226 236 252 261 268 276 280 291 323 311 223 179 197 172 187 185 209 204 198 187 196
164 164 164 164 166 169 169 169 173 176 186 195 194 190 194 195 197 201 215 220 222 231 245 259 264 266 267 269 270 272 268 263 239 209 218 293 295 214 200 203 206 211 203
166 165 167 171 170 174 176 176 178 186 189 186 183 186 189 192 199 202 210 230 247 257 262 266 271 272 273 271 266 260 257 252 246 233 234 233 239 202 219 213 217 228 221
169 168 170 174 176 176 177 183 185 188 189 187 181 178 178 185 198 217 233 245 256 268 270 270 267 266 264 266 267 262 256 251 247 242 239 241 259 245 242 239 225 224 236
174 174 172 175 178 180 186 192 190 188 191 194 195 194 197 205 217 227 232 239 246 255 271 279 277 274 269 264 260 261 261 258 250 245 243 242 250 250 257 252 245 221 216
177 180 180 179 182 186 190 194 194 190 195 199 202 206 214 223 221 220 219 224 246 264 287 284 282 280 277 269 262 264 265 265 258 251 243 238 236 248 267 272 250 240 240
184 186 188 187 187 190 193 197 193 192 199 204 210 218 222 216 206 204 214 230 268 295 300 291 288 287 283 283 273 267 267 261 263 255 249 236 242 258 269 279 280 255 251
187 189 192 191 193 193 195 200 199 198 206 208 212 217 214 201 195 187 199 247 302 305 303 300 305 302 296 280 277 272 260 265 260 258 244 236 239 253 269 281 281 268 254
187 192 194 194 196 198 200 203 206 209 213 214 212 212 202 199 199 208 228 280 295 316 330 307 290 295 315 284 274 272 270 262 254 255 245 238 246 258 267 275 275 271 256
191 195 198 199 199 200 204 205 206 210 212 213 213 206 203 208 215 230 229 260 268 297 312 308 305 315 303 294 279 277 271 263 257 252 246 251 257 262 269 271 272 265 251
194 196 200 204 203 203 206 208 208 209 209 209 212 207 207 213 227 239 230 255 274 284 289 302 309 299 294 285 292 275 257 257 253 252 257 259 272 260 263 267 272 259 246
196 198 203 207 208 210 211 210 210 208 203 202 196 198 216 228 236 234 235 258 265 274 283 291 300 292 311 301 290 282 267 259 255 255 257 267 255 253 250 255 261 250 237
197 198 202 204 212 214 215 215 213 209 208 201 199 203 214 224 220 226 241 259 263 272 276 294 289 299 302 302 287 278 276 264 257 252 256 259 263 238 240 246 246 263 239
205 206 205 207 206 206 208 214 214 211 211 209 215 221 223 224 221 230 238 246 259 275 282 283 284 288 298 297 278 285 285 282 278 260 251 270 254 231 235 239 243 250 241
213 213 213 215 214 210 210 211 213 215 217 218 222 226 224 228 233 241 250 256 275 280 273 276 283 286 292 289 279 294 279 276 274 281 272 254 245 234 232 243 246 234 252
220 221 222 222 223 222 223 222 222 224 223 227 231 234 233 232 236 245 251 259 276 279 273 274 286 284 290 287 284 283 282 276 282 288 276 246 246 245 234 237 247 238 236
224 226 225 226 226 227 226 227 229 231 231 233 237 242 241 238 242 251 255 257 271 284 267 278 289 284 279 302 276 279 282 271 277 284 268 250 246 238 233 231 237 238 233
219 222 227 228 230 231 232 233 236 239 241 242 244 248 250 247 245 252 260 257 272 280 265 275 283 284 283 297 282 282 288 282 269 288 287 272 245 240 243 233 227 240 237
225 224 226 228 232 235 238 239 240 243 246 248 249 251 250 252 250 252 257 254 263 272 262 276 278 283 284 286 288 272 286 279 306 299 306 296 243 238 241 236 241 240 236
230 229 231 233 236 237 241 242 244 246 248 252 252 255 258 259 262 261 253 248 256 266 262 270 275 281 274 280 289 278 274 268 286 298 302 307 286 259 255 248 240 241 236
237 237 236 236 238 241 243 244 248 247 252 252 254 255 257 259 265 267 250 240 249 261 269 267 269 277 276 276 280 286 280 274 271 266 287 290 308 303 287 255 244 224 231
233 237 240 239 240 240 245 248 250 252 254 253 253 254 252 255 259 260 245 241 247 264 272 273 267 271 275 274 275 276 273 268 268 271 273 291 295 298 300 287 238 224 242